Wind_Speed
17 16 15 16 14 15 16 16 13 13 15 13 12 10 4 3 3 5 6 5 6 7 7 9 10 10 11 11 11 11 13 13 13 12 12 12 12 11 11 11 11 13 14 10
12 13 13 16 17 18 18 17 12 16 17 13 11 5 5 4 5 6 7 6 6 8 9 11 12 13 14 14 14 15 17 16 16 16 15 15 16 16 17 14 14 10 9 8
13 8 8 6 15 16 16 14 14 14 14 12 11 12 8 6 7 9 9 9 9 10 11 14 15 15 17 17 17 18 19 18 18 18 20 20 19 17 14 12 6 4 7 9
5 4 7 10 3 17 18 15 14 15 13 13 11 3 6 3 9 11 10 11 10 11 15 16 17 19 19 19 20 21 21 21 21 20 19 16 15 13 9 6 5 7 8 8
4 9 10 3 5 8 13 15 16 18 18 10 6 9 6 6 9 11 11 10 12 14 16 18 18 19 21 21 22 22 21 20 18 16 14 11 8 5 3 2 2 3 5 7
3 7 8 9 12 11 4 14 11 12 13 10 12 8 7 13 12 12 13 15 16 16 18 19 19 20 22 22 21 20 17 15 13 10 10 7 6 5 3 1 2 4 6 9
11 7 6 4 9 11 10 15 4 8 8 14 13 4 16 17 13 14 15 18 18 18 18 19 20 21 22 21 19 17 15 14 12 10 9 7 6 5 3 3 5 7 8 11
7 6 11 11 10 12 13 4 7 9 11 15 10 13 17 17 16 15 17 19 18 19 19 19 19 20 20 19 16 15 14 13 12 10 8 6 5 4 4 6 7 8 9 10
7 6 4 19 14 16 6 8 7 10 11 15 15 15 17 16 16 16 20 20 20 22 21 18 17 17 19 16 15 14 14 12 10 8 7 6 5 5 5 5 6 8 9 10
5 10 13 13 16 6 8 8 6 8 14 18 19 19 18 16 15 14 20 21 22 22 21 19 16 16 17 15 14 14 12 10 8 7 6 6 4 5 5 6 7 8 9 11
14 14 12 13 14 14 10 8 8 10 14 19 20 20 18 17 16 19 21 21 21 20 20 19 18 16 14 13 12 11 10 9 7 6 5 4 4 4 4 5 5 7 8 11
9 12 8 16 3 14 15 15 11 15 17 17 19 22 20 18 21 22 23 22 21 21 21 19 17 16 13 11 10 10 9 7 6 5 4 3 3 1 4 5 4 3 5 9
10 4 7 3 5 4 13 12 13 15 19 22 20 22 24 19 26 26 25 23 23 22 21 20 17 15 12 10 10 10 9 7 5 4 3 3 2 3 4 3 6 3 7 9
6 5 5 6 2 7 6 10 10 13 16 17 23 28 27 23 27 25 24 23 24 23 21 19 17 14 11 10 10 10 9 9 5 3 2 2 2 3 4 6 7 8 8 10
10 7 3 5 7 9 11 11 14 16 16 16 22 23 27 23 24 25 25 25 25 23 19 17 15 13 10 9 9 8 6 5 4 3 2 2 2 3 4 6 7 9 11 10
8 7 7 8 11 11 13 15 14 15 16 17 16 23 26 26 27 26 25 25 24 20 18 17 14 11 9 8 8 7 6 5 4 2 1 2 3 4 5 6 8 9 11 13
4 6 9 8 10 14 14 10 11 13 15 16 20 26 28 28 26 23 20 17 21 18 16 14 14 10 9 8 5 6 4 2 3 1 1 2 3 4 5 7 8 10 11 12
5 4 5 5 10 11 10 11 13 15 15 21 23 25 25 23 19 23 21 15 18 16 12 11 11 11 9 7 6 4 4 3 1 1 1 2 3 5 6 7 9 11 12 13
2 2 4 8 10 12 13 12 17 21 25 28 27 23 24 24 25 20 18 18 13 13 10 10 11 9 8 6 5 4 3 2 1 0 1 2 3 5 6 8 9 11 13 14
11 11 12 10 12 15 14 22 25 24 24 28 29 26 23 21 22 21 16 13 8 9 10 9 8 8 7 5 5 3 2 1 1 1 2 3 4 6 7 8 9 11 12 14
12 13 14 13 14 20 20 22 25 23 23 24 25 22 22 21 17 17 15 12 11 10 10 9 6 5 4 3 3 2 1 1 2 3 3 4 6 6 8 9 10 11 13 14
10 12 12 17 18 20 21 23 26 26 25 24 23 23 22 19 15 13 9 11 11 9 7 5 4 4 3 3 1 1 1 2 3 4 4 5 6 7 8 10 11 12 13 14
16 17 19 20 20 23 25 25 24 24 22 19 18 17 16 14 11 10 9 8 9 7 5 4 2 1 0 1 2 3 3 4 5 5 6 6 7 8 9 11 12 13 14 15
21 22 21 22 25 26 19 21 22 20 20 19 18 15 15 13 10 8 11 10 9 7 4 3 1 2 1 3 4 5 5 6 7 7 7 8 9 9 10 11 13 13 14 15
23 24 23 22 21 19 21 21 21 20 19 18 15 13 11 8 5 8 8 7 7 4 2 0 2 3 3 5 6 6 7 8 8 8 9 10 10 10 11 12 13 14 15 15
24 22 23 23 20 17 16 16 16 13 12 12 11 9 7 7 7 7 6 5 4 2 1 1 2 3 5 6 7 8 8 9 9 9 10 11 12 12 12 13 15 14 15 15
26 23 23 22 22 20 19 17 16 14 13 10 8 6 4 4 4 4 4 3 1 1 1 2 3 5 6 7 8 9 10 10 10 11 11 12 12 12 13 14 15 15 15 15
Wind_Direction
241 250 241 240 239 218 222 231 251 263 254 252 264 250 251 182 191 182 183 185 183 165 140 131 119 109 109 109 109 111 108 104 105 110 112 115 118 123 126 129 146 147 161 154
229 233 232 241 245 251 233 248 255 261 267 266 262 232 228 207 179 165 146 141 134 136 126 114 111 106 105 104 103 105 102 104 108 108 110 113 115 116 117 112 125 134 145 217
236 223 233 254 236 231 228 223 230 260 264 260 238 229 221 186 160 146 130 119 112 107 105 105 104 108 105 104 106 104 104 106 109 113 113 114 113 113 110 110 122 203 221 242
223 172 227 243 214 227 233 238 238 256 256 261 269 150 158 180 153 139 131 120 114 110 108 105 106 106 109 109 108 108 109 112 114 114 115 114 112 108 117 141 195 236 258 262
177 213 255 191 194 188 204 243 240 250 262 241 177 153 167 155 143 134 127 118 113 113 114 114 114 116 114 111 112 112 114 117 119 120 120 124 127 136 155 184 211 263 279 287
168 224 226 239 206 198 228 262 253 250 262 206 176 216 198 159 145 137 132 129 126 123 119 117 119 121 118 116 115 112 115 117 119 118 117 116 114 110 106 55 317 308 300 299
216 242 248 208 160 158 206 260 169 214 223 190 202 259 134 143 143 141 135 132 130 126 121 122 125 124 118 117 115 120 120 116 107 102 98 96 92 73 36 350 326 321 316 313
206 227 239 151 142 208 231 219 200 199 193 194 167 133 141 144 144 143 138 136 131 125 122 123 124 122 119 116 119 119 116 110 102 98 92 82 71 41 9 350 334 328 330 327
223 231 200 185 212 219 229 228 190 191 179 171 154 154 153 150 148 146 143 139 137 131 125 122 123 125 120 120 123 119 113 108 102 94 81 61 44 23 5 351 346 341 337 332
297 260 240 213 224 234 214 215 185 192 177 164 159 155 155 152 149 150 148 145 140 135 127 120 120 120 121 126 125 120 115 109 101 83 77 56 51 31 16 4 352 346 344 339
237 257 274 263 240 221 206 203 186 176 174 173 157 158 157 155 155 153 149 146 144 136 130 126 124 119 119 120 125 122 115 107 100 90 74 70 57 45 40 29 12 349 348 340
236 243 223 262 240 211 212 206 187 168 167 168 164 156 157 156 157 155 152 148 143 139 132 127 122 116 114 117 126 122 114 101 89 87 79 65 47 93 349 359 1 339 337 341
230 184 219 259 323 188 213 202 185 180 172 163 160 156 159 157 160 155 153 150 146 141 135 132 125 118 115 112 112 112 113 109 99 85 78 54 31 7 335 327 343 334 330 337
213 158 232 207 231 151 199 166 163 160 164 163 156 157 155 154 150 154 152 147 141 137 134 131 126 120 121 120 117 111 103 105 99 88 66 41 12 353 339 334 325 323 326 330
215 210 282 119 131 139 146 154 158 154 153 154 155 153 154 152 153 149 144 142 139 136 134 133 128 122 123 119 113 110 107 102 98 96 67 39 360 345 338 328 325 323 325 328
195 205 188 193 161 161 169 168 174 161 157 155 154 154 154 148 140 141 142 142 139 140 138 132 126 122 118 120 119 110 98 96 99 96 51 359 350 342 335 330 326 326 326 330
174 232 217 201 185 172 177 181 163 165 151 153 149 146 140 135 131 131 129 117 116 120 127 127 123 118 113 115 118 122 128 114 108 88 24 355 343 337 332 327 325 324 323 326
265 272 217 216 172 161 158 147 142 144 141 135 128 122 120 120 116 114 112 115 114 115 119 124 121 116 111 112 119 120 117 121 124 106 344 342 339 335 330 326 322 322 322 323
3 76 118 137 151 152 146 139 136 124 117 124 123 115 109 110 115 116 125 127 124 121 128 126 121 113 107 108 104 105 102 110 130 45 350 336 333 333 327 323 322 322 323 323
78 79 82 94 123 127 112 116 115 114 117 115 109 108 106 110 118 126 128 114 108 131 142 133 120 114 108 98 99 90 84 60 347 320 321 333 330 325 320 319 319 319 321 320
79 86 85 88 85 91 102 110 113 109 110 109 110 111 112 122 128 124 121 115 123 134 139 130 125 121 115 111 95 95 79 340 321 310 308 316 318 319 318 318 319 320 318 316
71 79 85 90 87 82 86 94 97 98 98 99 105 116 121 123 117 96 87 135 146 142 134 120 114 125 126 116 195 285 286 294 293 299 303 308 311 314 316 317 317 316 314 314
78 82 83 83 85 87 83 81 84 91 97 108 116 115 113 118 119 127 125 130 140 137 119 114 130 107 327 265 282 287 287 283 285 292 296 298 302 306 311 312 310 311 311 311
81 78 81 86 87 82 81 81 86 89 91 90 92 101 111 109 92 92 114 134 141 133 134 132 135 299 304 279 286 289 292 290 287 288 292 292 296 299 302 305 306 306 306 308
77 79 77 78 79 82 88 90 89 88 89 89 87 87 87 79 105 131 131 137 143 131 128 262 289 287 280 283 286 290 295 297 290 284 287 290 292 294 298 300 301 301 302 305
70 71 71 71 76 79 80 83 83 81 87 87 79 78 80 87 109 124 128 132 129 123 123 290 272 277 284 289 290 293 297 300 298 293 289 290 290 291 295 297 299 301 301 301
62 65 66 64 58 62 67 70 74 67 60 61 76 67 75 89 107 113 127 128 115 70 344 323 308 297 293 293 295 296 298 298 297 295 295 292 289 288 290 295 298 299 300 300
Height
725 724 724 729 730 735 741 740 744 740 734 729 721 719 720 727 734 734 736 738 739 740 744 749 755 760 764 769 772 775 778 782 785 789 792 796 800 803 806 810 814 817 820 826
732 725 729 731 725 725 728 727 730 731 730 718 715 721 726 729 731 735 739 742 744 745 748 753 758 762 767 771 775 778 781 786 789 792 796 800 803 806 810 813 816 821 822 825
736 731 733 752 733 724 722 722 724 730 720 712 718 721 722 728 730 737 743 746 750 752 755 758 762 765 769 773 778 781 785 789 793 797 800 804 807 810 813 816 819 821 822 824
736 758 758 714 710 709 714 712 712 713 712 710 711 717 730 731 735 742 747 751 755 757 760 763 766 770 773 777 781 785 789 793 798 801 804 807 809 812 814 816 818 820 821 822
741 735 716 721 719 717 718 713 702 706 704 704 724 730 737 740 739 745 751 755 758 762 764 766 770 773 776 779 784 788 793 797 801 804 807 810 811 812 814 815 817 819 819 820
741 730 736 705 695 699 705 713 695 698 703 709 725 725 710 741 747 751 755 758 761 765 768 770 773 776 778 782 787 792 797 801 804 806 808 810 811 813 814 815 816 817 817 817
724 726 705 692 695 701 721 704 691 693 697 710 718 709 718 738 747 753 756 760 763 766 769 772 776 779 782 787 792 797 800 804 806 808 810 811 812 813 814 815 815 815 815 815
720 729 722 694 704 702 684 686 687 693 695 704 713 724 732 739 746 753 757 762 765 769 773 777 779 782 786 791 795 799 802 804 807 809 810 811 812 813 813 813 813 814 813 813
703 690 678 683 674 677 679 678 688 689 694 700 717 726 733 741 748 753 757 762 767 771 775 779 782 785 789 794 797 800 803 805 808 810 810 811 811 812 812 813 812 812 811 810
703 679 682 679 674 679 681 682 684 686 693 703 711 722 733 742 748 753 758 763 768 773 777 782 786 790 793 796 798 801 804 806 808 809 810 811 811 812 812 813 812 811 810 809
687 680 683 681 674 672 681 685 687 688 694 700 709 720 729 739 747 752 759 765 769 774 779 784 788 792 795 797 800 803 805 806 807 809 809 810 811 812 813 813 812 811 810 808
675 662 673 663 664 671 677 682 685 688 695 702 708 715 727 737 745 753 759 764 769 775 781 786 790 793 796 798 800 802 805 808 809 810 810 810 810 810 810 810 809 809 809 807
664 670 671 676 678 669 674 679 683 688 692 697 707 715 725 733 742 749 757 763 769 775 782 786 790 794 797 800 801 802 805 807 809 811 811 811 810 810 809 808 807 807 806 803
669 673 672 674 669 675 682 683 688 690 698 703 706 714 723 733 744 751 757 763 771 778 784 788 791 795 799 800 801 802 804 806 808 810 811 811 810 809 808 807 806 805 803 801
668 670 672 673 677 679 682 691 693 693 699 707 713 717 724 732 741 750 759 766 772 778 784 789 793 797 799 801 803 804 805 806 807 809 810 810 809 808 807 806 804 802 800 798
666 671 674 671 672 679 684 687 694 697 701 708 715 723 729 735 744 754 762 767 771 779 784 789 793 796 800 803 802 805 807 806 807 809 809 808 807 806 805 804 802 800 798 796
670 673 674 674 676 676 681 691 693 704 706 712 717 725 732 741 751 761 769 772 776 784 789 791 793 796 798 800 804 802 804 807 806 808 807 807 806 804 803 802 800 798 797 795
667 667 669 670 674 682 690 694 700 708 710 720 729 735 742 750 758 765 773 785 783 787 792 794 794 795 798 800 802 805 804 805 806 806 806 805 804 803 802 800 798 796 794 792
673 672 673 675 681 687 694 700 705 711 718 725 733 741 748 754 759 772 780 781 790 791 797 796 795 797 798 800 801 803 804 805 805 805 804 803 802 801 800 798 796 795 792 789
681 682 685 688 693 694 699 707 713 718 725 729 736 744 751 760 769 775 781 786 789 794 800 799 798 799 800 800 801 802 803 804 805 804 803 802 801 800 798 797 795 792 790 788
692 693 696 700 705 705 711 713 718 725 732 737 741 750 758 768 777 779 782 787 793 797 799 797 798 799 799 800 802 802 802 803 804 803 802 801 799 798 796 795 792 790 788 785
703 706 708 710 712 716 721 725 727 733 741 746 754 760 766 774 779 783 785 790 795 798 798 798 799 798 798 800 802 801 801 802 803 802 800 799 797 796 794 792 790 788 786 783
714 717 718 720 723 728 733 737 742 746 752 759 763 767 771 777 781 785 790 794 795 796 798 799 799 799 799 801 801 800 800 800 800 799 797 797 795 794 792 790 788 786 783 780
724 726 729 732 734 738 744 752 756 760 763 767 771 774 777 782 786 788 790 792 794 796 797 797 798 798 798 800 800 799 798 798 797 796 795 794 793 791 789 788 786 783 780 777
735 737 741 744 746 753 757 761 764 768 771 776 778 780 782 785 787 790 792 794 794 796 796 796 797 797 798 798 798 797 797 795 794 793 792 791 790 788 786 784 782 780 776 773
748 751 754 756 760 763 765 767 771 775 778 781 783 785 787 788 789 791 792 794 794 795 796 796 796 796 796 796 796 795 794 792 791 790 789 787 786 784 782 781 778 775 772 769
762 763 765 768 771 773 774 776 779 782 784 786 788 790 791 791 792 792 793 794 795 795 795 795 795 794 794 794 793 792 791 790 788 787 785 783 781 780 778 776 773 770 767 764